TimeCST,TemperatureF,Dew PointF,Humidity,Sea Level PressureIn,VisibilityMPH,Wind Direction,Wind SpeedMPH,Gust SpeedMPH,PrecipitationIn,Events,Conditions,WindDirDegrees,DateUTC
12:15 AM,33.8,30.2,87,29.92,0.2,NNW,3.5,-,N/A,,Overcast,330,2013-02-22 06:15:00
12:55 AM,33.8,30.2,87,29.93,0.2,Calm,Calm,-,N/A,,Overcast,0,2013-02-22 06:55:00
1:15 AM,33.8,30.2,87,29.93,0.2,Calm,Calm,-,N/A,,Overcast,0,2013-02-22 07:15:00
1:35 AM,33.8,30.2,87,29.94,0.2,SW,3.5,-,N/A,,Overcast,220,2013-02-22 07:35:00
1:55 AM,33.8,30.2,87,29.95,0.2,South,5.8,-,N/A,,Overcast,190,2013-02-22 07:55:00
2:15 AM,33.8,30.2,87,29.95,0.2,SSW,4.6,-,N/A,,Overcast,200,2013-02-22 08:15:00
2:35 AM,33.8,30.2,87,29.97,0.2,West,6.9,-,N/A,,Overcast,260,2013-02-22 08:35:00
2:55 AM,33.8,30.2,87,29.97,0.2,WNW,9.2,-,N/A,,Overcast,290,2013-02-22 08:55:00
3:15 AM,33.8,30.2,87,29.98,0.5,WNW,11.5,-,N/A,,Overcast,300,2013-02-22 09:15:00
3:35 AM,33.8,30.2,87,29.98,0.5,West,9.2,-,N/A,,Overcast,280,2013-02-22 09:35:00
3:55 AM,33.8,30.2,87,29.99,0.8,WNW,6.9,-,N/A,,Overcast,300,2013-02-22 09:55:00
4:15 AM,33.8,30.2,87,30.00,0.8,West,5.8,-,N/A,,Overcast,280,2013-02-22 10:15:00
4:35 AM,33.8,30.2,87,30.00,0.5,West,3.5,-,N/A,,Overcast,270,2013-02-22 10:35:00
4:55 AM,33.8,30.2,87,30.00,0.5,Calm,Calm,-,N/A,,Overcast,0,2013-02-22 10:55:00
5:15 AM,33.8,30.2,87,30.00,0.5,Calm,Calm,-,N/A,,Overcast,0,2013-02-22 11:15:00
5:35 AM,33.8,30.2,87,30.01,0.5,NW,4.6,-,N/A,,Overcast,310,2013-02-22 11:35:00
5:55 AM,33.8,30.2,87,30.02,0.5,West,3.5,-,N/A,,Overcast,280,2013-02-22 11:55:00
6:15 AM,33.8,30.2,87,30.02,0.2,WNW,3.5,-,N/A,,Overcast,290,2013-02-22 12:15:00
6:35 AM,33.8,30.2,87,30.03,0.2,Calm,Calm,-,N/A,,Overcast,0,2013-02-22 12:35:00
6:55 AM,33.8,30.2,87,30.05,0.2,West,5.8,-,N/A,,Overcast,260,2013-02-22 12:55:00
7:35 AM,33.8,30.2,87,30.07,0.5,West,6.9,-,N/A,,Overcast,260,2013-02-22 13:35:00
7:55 AM,35.6,32.0,87,30.08,1.2,WSW,5.8,-,N/A,,Overcast,240,2013-02-22 13:55:00
8:15 AM,35.6,32.0,87,30.09,5.0,SW,6.9,-,N/A,,Overcast,230,2013-02-22 14:15:00
8:35 AM,35.6,33.8,93,30.10,10.0,WSW,8.1,-,N/A,,Mostly Cloudy,240,2013-02-22 14:35:00
8:55 AM,37.4,33.8,87,30.10,7.0,West,8.1,-,N/A,,Mostly Cloudy,280,2013-02-22 14:55:00
9:15 AM,37.4,33.8,87,30.10,10.0,West,8.1,-,N/A,,Mostly Cloudy,270,2013-02-22 15:15:00
9:35 AM,39.2,35.6,87,30.10,10.0,West,10.4,-,N/A,,Mostly Cloudy,270,2013-02-22 15:35:00
9:55 AM,39.2,35.6,87,30.11,10.0,West,11.5,-,N/A,,Mostly Cloudy,260,2013-02-22 15:55:00
10:15 AM,39.2,33.8,81,30.11,10.0,West,12.7,-,N/A,,Mostly Cloudy,270,2013-02-22 16:15:00
10:35 AM,41.0,35.6,81,30.10,10.0,WNW,13.8,-,N/A,,Scattered Clouds,290,2013-02-22 16:35:00
10:55 AM,42.8,35.6,76,30.10,10.0,WNW,11.5,-,N/A,,Partly Cloudy,290,2013-02-22 16:55:00
11:15 AM,42.8,35.6,76,30.10,10.0,West,12.7,-,N/A,,Clear,280,2013-02-22 17:15:00
11:35 AM,42.8,33.8,70,30.10,10.0,West,11.5,-,N/A,,Partly Cloudy,280,2013-02-22 17:35:00
11:55 AM,42.8,33.8,70,30.08,10.0,NW,11.5,-,N/A,,Clear,310,2013-02-22 17:55:00
12:15 PM,44.6,35.6,71,30.09,10.0,WNW,9.2,-,N/A,,Clear,300,2013-02-22 18:15:00
12:35 PM,44.6,35.6,71,30.08,10.0,West,6.9,-,N/A,,Clear,280,2013-02-22 18:35:00
12:55 PM,44.6,33.8,66,30.08,10.0,WNW,8.1,-,N/A,,Clear,290,2013-02-22 18:55:00
1:15 PM,44.6,35.6,71,30.08,10.0,West,6.9,-,N/A,,Clear,280,2013-02-22 19:15:00
1:35 PM,46.4,35.6,66,30.06,10.0,WNW,6.9,-,N/A,,Clear,290,2013-02-22 19:35:00
1:55 PM,46.4,35.6,66,30.05,10.0,West,8.1,-,N/A,,Clear,270,2013-02-22 19:55:00
2:15 PM,48.2,33.8,58,30.04,10.0,NW,8.1,-,N/A,,Clear,310,2013-02-22 20:15:00
2:35 PM,46.4,35.6,66,30.03,10.0,NW,5.8,-,N/A,,Clear,320,2013-02-22 20:35:00
2:55 PM,48.2,35.6,62,30.02,10.0,NNW,10.4,-,N/A,,Clear,330,2013-02-22 20:55:00
3:15 PM,48.2,35.6,62,30.00,10.0,NNW,13.8,17.3,N/A,,Clear,330,2013-02-22 21:15:00
3:35 PM,46.4,32.0,57,30.02,10.0,NW,10.4,-,N/A,,Clear,320,2013-02-22 21:35:00
3:55 PM,46.4,32.0,57,30.03,10.0,NW,6.9,-,N/A,,Clear,310,2013-02-22 21:55:00
4:15 PM,46.4,33.8,62,30.04,10.0,NW,8.1,-,N/A,,Clear,320,2013-02-22 22:15:00
4:35 PM,46.4,33.8,62,30.04,10.0,NW,4.6,-,N/A,,Clear,320,2013-02-22 22:35:00
4:55 PM,46.4,33.8,62,30.04,10.0,NNW,5.8,-,N/A,,Clear,340,2013-02-22 22:55:00
5:15 PM,46.4,33.8,62,30.05,10.0,NNW,5.8,-,N/A,,Clear,340,2013-02-22 23:15:00
5:35 PM,44.6,33.8,66,30.05,10.0,North,5.8,-,N/A,,Clear,350,2013-02-22 23:35:00
5:55 PM,44.6,32.0,61,30.06,10.0,NW,6.9,-,N/A,,Clear,310,2013-02-22 23:55:00
6:15 PM,42.8,32.0,66,30.07,10.0,WNW,5.8,-,N/A,,Scattered Clouds,300,2013-02-23 00:15:00
6:35 PM,42.8,32.0,66,30.07,10.0,NW,5.8,-,N/A,,Partly Cloudy,310,2013-02-23 00:35:00
6:55 PM,42.8,30.2,61,30.07,10.0,NNW,6.9,-,N/A,,Clear,330,2013-02-23 00:55:00
7:15 PM,42.8,32.0,66,30.07,10.0,NNW,8.1,-,N/A,,Clear,330,2013-02-23 01:15:00
7:35 PM,42.8,30.2,61,30.09,10.0,NW,9.2,-,N/A,,Clear,320,2013-02-23 01:35:00
7:55 PM,42.8,30.2,61,30.08,10.0,NW,10.4,-,N/A,,Clear,310,2013-02-23 01:55:00
8:15 PM,39.2,32.0,75,30.09,10.0,NNW,9.2,-,N/A,,Clear,330,2013-02-23 02:15:00
8:55 PM,41.0,30.2,65,30.10,10.0,NNW,10.4,-,N/A,,Clear,330,2013-02-23 02:55:00
9:15 PM,39.2,33.8,81,30.10,10.0,North,9.2,-,N/A,,Clear,360,2013-02-23 03:15:00
9:35 PM,39.2,33.8,81,30.10,10.0,North,10.4,-,N/A,,Clear,360,2013-02-23 03:35:00
9:55 PM,39.2,33.8,81,30.11,10.0,North,9.2,-,N/A,,Clear,360,2013-02-23 03:55:00
10:15 PM,37.4,33.8,87,30.10,10.0,North,11.5,-,N/A,,Clear,350,2013-02-23 04:15:00
10:35 PM,37.4,32.0,81,30.10,10.0,North,10.4,-,N/A,,Clear,360,2013-02-23 04:35:00
10:55 PM,37.4,30.2,75,30.10,10.0,North,9.2,-,N/A,,Clear,10,2013-02-23 04:55:00
11:15 PM,37.4,30.2,75,30.10,10.0,North,9.2,-,N/A,,Clear,10,2013-02-23 05:15:00
11:55 PM,35.6,30.2,81,30.09,10.0,NNE,6.9,-,N/A,,Clear,30,2013-02-23 05:55:00